Location: Unspecified
(0.0000°N, 0.0000°E)
Time: 02:51:22
(UTC+00:00)

ISS - Visible Passes

Search period start: 22 November 2014 00:00
Search period end: 02 December 2014 00:00
Orbit: 408 x 417 km, 51.6° (Epoch: 21 November)

Date Brightness Start Highest point End Pass type
(mag) Time Alt. Az. Time Alt. Az. Time Alt. Az.
28 Nov -1.0 19:40:39 10° SW 19:42:03 23° SW 19:42:03 23° SW visible
29 Nov -2.4 18:51:01 10° SSW 18:54:03 33° SE 18:54:41 30° E visible
30 Nov -0.8 19:38:12 10° W 19:40:10 17° WNW 19:40:10 17° WNW visible
01 Dec -2.3 18:47:19 10° SW 18:50:29 43° NW 18:52:48 16° NNE visible
